San Angelo, TX

6:38 PM CDT on August 19, 2017 (GMT -0500)
San Angelo Regional-Mathis

Weather History for KSJT - December, 2013

Change the Weather History Date:

Friday, December 6, 2013

  Actual Average Record
Temperature  
Mean Temperature 27 °F 48 °F  
Max Temperature 31 °F 61 °F 81 °F (1966)
Min Temperature 23 °F 35 °F 11 °F (1950)
Degree Days  
Heating Degree Days 38 17  
Month to date heating degree days 82 98  
Since 1 July heating degree days 558 498  
Cooling Degree Days 0 0  
Month to date cooling degree days 3 0  
Year to date cooling degree days 2863 2502  
Moisture  
Dew Point 21 °F    
Average Humidity 79    
Maximum Humidity 88    
Minimum Humidity 69    
Precipitation  
Precipitation 0.18 in 0.02 in 2.10 in (1926)
Month to date precipitation 0.64 0.14  
Year to date precipitation 19.29 20.54  
Snow  
Snow 1.00 in 0.10 in T in (1969)
Month to date snowfall 1.5 0.1  
Since 1 July snowfall 1.5 0.4  
Snow Depth 1.00 in    
Sea Level Pressure  
Sea Level Pressure 30.31 in    
Wind  
Wind Speed 13 mph (North)    
Max Wind Speed 20 mph    
Max Gust Speed 23 mph    
Visibility 8 miles    
Events Rain , Snow    
T = Trace of Precipitation, MM = Missing Value Source: NWS Daily Summary

Daily Weather History Graph

Daily Weather History Graph

Search for Another Location

Airport or City:

Trip Planner

Search our weather history database for the weather conditions in past years. The results will help you decide how hot, cold, wet, or windy it might be!

Date:

Astronomy

Dec. 06, 2013 Rise Set
Actual Time 7:27 AM CST 5:38 PM CST
Civil Twilight 7:00 AM CST 6:05 PM CST
Nautical Twilight 6:30 AM CST 6:35 PM CST
Astronomical Twilight 6:01 AM CST 7:05 PM CST
Moon 10:42 AM CST (12/6) 10:02 PM CST (12/6)
Length of Visible Light 11h 04m
Length of Day
10h 11m
Waxing Crescent, 19% of the Moon is Illuminated
Dec 6
Waxing Crescent
Dec 9
First Quarter
Dec 17
Full
Dec 25
Last Quarter
Jan 1
New

Hourly Weather History & Observations

Time (CST) Temp. Windchill Dew Point Humidity Pressure Visibility Wind Dir Wind Speed Gust Speed Precip Events Conditions
12:51 AM 26.1 °F 15.6 °F 23.0 °F 88% 30.22 in 7.0 mi NNW 11.5 mph - 0.00 in   Overcast
1:26 AM 24.8 °F 12.9 °F 23.0 °F 93% 30.13 in 2.0 mi North 13.8 mph - 0.05 in Snow Light Snow
1:29 AM 24.8 °F 14.6 °F 21.2 °F 86% 30.13 in 3.0 mi North 10.4 mph - 0.05 in   Overcast
1:39 AM 24.8 °F 15.3 °F 23.0 °F 93% 30.14 in 5.0 mi NNW 9.2 mph - 0.05 in   Overcast
1:47 AM 26.6 °F 20.0 °F 23.0 °F 86% 30.16 in 6.0 mi North 5.8 mph - 0.06 in   Overcast
1:51 AM 26.1 °F 16.8 °F 23.0 °F 88% 30.21 in 5.0 mi North 9.2 mph - 0.06 in   Overcast
2:01 AM 26.6 °F 16.8 °F 24.8 °F 93% 30.14 in 2.0 mi North 10.4 mph - 0.05 in   Overcast
2:17 AM 26.6 °F 16.8 °F 24.8 °F 93% 30.14 in 3.0 mi North 10.4 mph - 0.08 in   Overcast
2:51 AM 26.1 °F 14.5 °F 21.9 °F 84% 30.21 in 10.0 mi North 13.8 mph - 0.09 in   Overcast
3:13 AM 26.6 °F 14.3 °F 23.0 °F 86% 30.12 in 8.0 mi North 16.1 mph - 0.01 in   Overcast
3:51 AM 26.1 °F 14.0 °F 21.9 °F 84% 30.23 in 10.0 mi North 15.0 mph - 0.02 in   Overcast
3:55 AM 26.6 °F 15.2 °F 21.2 °F 80% 30.19 in 10.0 mi North 13.8 mph - 0.00 in Rain Light Freezing Rain
4:11 AM 24.8 °F 11.9 °F 21.2 °F 86% 30.14 in 6.0 mi North 16.1 mph - 0.01 in Snow Light Snow
4:26 AM 24.8 °F 14.0 °F 23.0 °F 93% 30.15 in 2.5 mi North 11.5 mph - 0.01 in Snow Light Snow
4:39 AM 24.8 °F 12.9 °F 21.2 °F 86% 30.16 in 5.0 mi North 13.8 mph - 0.01 in   Overcast
4:51 AM 25.0 °F 12.6 °F 21.9 °F 88% 30.24 in 5.0 mi North 15.0 mph - 0.01 in   Overcast
5:51 AM 25.0 °F 12.2 °F 19.9 °F 81% 30.27 in 10.0 mi North 16.1 mph - N/A   Overcast
6:51 AM 24.1 °F 11.0 °F 19.9 °F 84% 30.30 in 10.0 mi North 16.1 mph - N/A   Overcast
7:36 AM 24.8 °F 12.4 °F 19.4 °F 80% 30.25 in 10.0 mi North 15.0 mph - N/A   Overcast
7:51 AM 24.1 °F 12.0 °F 19.0 °F 81% 30.32 in 10.0 mi North 13.8 mph - N/A   Overcast
8:51 AM 24.1 °F 12.0 °F 19.0 °F 81% 30.36 in 10.0 mi North 13.8 mph - N/A   Overcast
9:18 AM 24.8 °F 13.4 °F 19.4 °F 80% 30.31 in 10.0 mi North 12.7 mph - N/A   Overcast
9:51 AM 26.1 °F 14.5 °F 19.9 °F 78% 30.38 in 10.0 mi North 13.8 mph - N/A   Overcast
10:25 AM 26.6 °F 16.2 °F 19.4 °F 74% 30.33 in 10.0 mi North 11.5 mph - N/A   Overcast
10:51 AM 26.1 °F 14.5 °F 19.9 °F 78% 30.40 in 10.0 mi North 13.8 mph 18.4 mph N/A   Overcast
11:51 AM 28.0 °F 17.5 °F 21.0 °F 75% 30.40 in 10.0 mi NNE 12.7 mph - N/A   Overcast
12:49 PM 28.4 °F 20.4 °F 21.2 °F 74% 30.32 in 10.0 mi North 8.1 mph - N/A   Overcast
12:51 PM 28.9 °F 20.4 °F 21.9 °F 75% 30.38 in 10.0 mi North 9.2 mph - N/A   Overcast
1:33 PM 30.2 °F 20.8 °F 21.2 °F 69% 30.31 in 10.0 mi North 11.5 mph - N/A   Overcast
1:51 PM 30.0 °F 21.7 °F 21.9 °F 72% 30.37 in 10.0 mi North 9.2 mph - N/A   Overcast
2:51 PM 30.0 °F 21.7 °F 21.9 °F 72% 30.36 in 10.0 mi NNE 9.2 mph - N/A   Mostly Cloudy
3:47 PM 30.2 °F 21.9 °F 21.2 °F 69% 30.31 in 10.0 mi NE 9.2 mph - N/A   Mostly Cloudy
3:51 PM 30.9 °F 25.2 °F 21.9 °F 69% 30.36 in 10.0 mi NE 5.8 mph - N/A   Scattered Clouds
4:10 PM 30.2 °F 22.6 °F 21.2 °F 69% 30.32 in 10.0 mi NE 8.1 mph - N/A   Mostly Cloudy
4:51 PM 30.0 °F 21.1 °F 21.9 °F 72% 30.39 in 10.0 mi ENE 10.4 mph - N/A   Overcast
5:51 PM 28.0 °F 17.0 °F 21.0 °F 75% 30.41 in 10.0 mi NE 13.8 mph - N/A   Overcast
6:51 PM 27.0 °F 15.2 °F 19.9 °F 75% 30.44 in 10.0 mi NE 15.0 mph - N/A   Overcast
7:51 PM 26.1 °F 15.0 °F 19.0 °F 75% 30.47 in 10.0 mi NE 12.7 mph - N/A   Overcast
8:26 PM 24.8 °F 14.6 °F 19.4 °F 80% 30.41 in 10.0 mi NE 10.4 mph - N/A   Scattered Clouds
8:51 PM 25.0 °F 13.1 °F 19.0 °F 78% 30.49 in 10.0 mi NNE 13.8 mph - N/A   Mostly Cloudy
9:04 PM 24.8 °F 14.6 °F 19.4 °F 80% 30.43 in 10.0 mi NNE 10.4 mph - N/A   Partly Cloudy
9:51 PM 25.0 °F 14.8 °F 18.0 °F 75% 30.51 in 10.0 mi NNE 10.4 mph - N/A   Clear
10:51 PM 24.1 °F 12.0 °F 17.1 °F 75% 30.53 in 10.0 mi NNE 13.8 mph - N/A   Clear
11:51 PM 23.0 °F 10.6 °F 16.0 °F 74% 30.51 in 10.0 mi NE 13.8 mph - N/A   Clear